Location: Alsip
(41.6689°N, 87.7387°W)
Time: 15:20:23
(UTC+00:00)

Cosmos 2221 - Pass Details

Date: 14 July 2020
Orbit: 592 x 617 km, 82.5° (Epoch: 12 August)

Event Time Altitude Azimuth Distance (km) Brightness Sun altitude
Rises 01:49:33 0° 10° (N) 2,882 6.3 -4.7°
Reaches altitude 10° 01:52:40 10° 34° (NE) 1,966 5.2 -5.2°
Maximum altitude 01:55:12 15° 70° (ENE) 1,648 4.4 -5.6°
Drops below altitude 10° 01:57:43 10° 106° (ESE) 1,948 4.5 -6.0°
Enters shadow 01:58:39 - 115° (ESE) 2,183 4.7 -6.1°
